Regional Weather Roundup
Issued by NWS

Home | Current Version | Previous Version | Text Only | Print | Product List | Glossary On
Versions: 1 2 3 4 5 6 7 8 9 10 11 12 13 14 15 16 17 18 19 20 21 22 23 24 25 26 27 28 29 30 31 32 33 34 35 36 37 38 39 40 41 42 43 44 45 46
000
ASUS42 KFFC 212303
RWRGA
WEATHER ROUNDUP FOR GEORGIA
NATIONAL WEATHER SERVICE PEACHTREE CITY GA
600 PM EST SUN DEC 21 2014

NOTE: "FAIR" INDICATES FEW OR NO CLOUDS BELOW 12,000 FEET WITH NO
SIGNIFICANT WEATHER AND/OR OBSTRUCTIONS TO VISIBILITY.

* = USE WITH CAUTION. THE STATIONS MARKED WITH AN ASTERISK MAY NOT
REPORT WEATHER SUCH AS PRECIPITATION, FOG, OR THUNDER AND ARE NOT
QUALITY CONTROLLED BY NWS.

THE REMARK "TC" DENOTES TEMPERATURE READING IN DEGREES CELSIUS.

GAZ001>058-220000-
NORTH GEORGIA

CITY           SKY/WX    TMP DP  RH WIND       PRES   REMARKS
ATLANTA        CLOUDY    49  44  83 E9        30.10S
ATHENS         CLOUDY    49  43  80 E5        30.13S
CHAMBLEE       CLOUDY    48  43  82 NE6       30.11S
PEACHTREE CITY CLOUDY    50  45  83 CALM      30.11S
ROME           CLOUDY    50  44  80 SE7       30.09F
WEST ATLANTA   CLOUDY    49  43  80 NE5       30.11S
GAINESVILLE    CLOUDY    47  42  83 E7        30.14R
CARTERSVILLE   CLOUDY    49  43  80 E3        30.12R


CITY           SKY/WX    TMP DP  RH WIND       PRES   REMARKS
DALTON*        CLOUDY    48  41  76 CALM      30.10S
LAWRENCEVILLE* CLOUDY    48  37  66 E6        30.11S
MARIETTA       CLOUDY    48  44  87 E6        30.11R
KENNESAW*      CLOUDY    46  43  87 SE7       30.13R FOG
$$

GAZ059>098-102>109-220000-
CENTRAL GEORGIA

CITY           SKY/WX    TMP DP  RH WIND       PRES   REMARKS
AUGUSTA-BUSH   CLOUDY    50  45  83 E5        30.14S
AUGUSTA-DANIEL CLOUDY    52  45  77 NE10      30.14S
COLUMBUS       CLOUDY    51  49  92 E8        30.08S
MACON          CLOUDY    50  48  93 NE7       30.10S
ROBINS AFB     DRIZZLE   51  47  83 VRB1      30.08F


CITY           SKY/WX    TMP DP  RH WIND       PRES   REMARKS
LAGRANGE*      DRIZZLE   54  50  87 E3        30.09S
SYLVANIA*      CLOUDY    47  46  99 E6        30.14S FOG
MILLEDGEVILLE* LGT RAIN  52  50  93 CALM      30.12F
$$

GAZ099>101-110>166-220000-
SOUTH GEORGIA

CITY           SKY/WX    TMP DP  RH WIND       PRES   REMARKS
SAVANNAH       CLOUDY    47  45  93 NE8       30.12S
VALDOSTA       LGT RAIN  54  53  97 NE5       30.07R
ALMA           CLOUDY    50  49  96 NE6       30.09R FOG
ST SIMONS      LGT RAIN  54  52  93 NE8       30.08R
FT STEWART     LGT RAIN  48  46  93 NE9       30.09S
ALBANY         CLOUDY    51  50  96 NE9       30.09R FOG
HUNTER AFB     CLOUDY    48  47  95 N9        30.09F
MOODY AFB      LGT RAIN  53  51  95 NE5       30.07R
BRUNSWICK      CLOUDY    52  50  93 NE7       30.09R


CITY           SKY/WX    TMP DP  RH WIND       PRES   REMARKS
BAINBRIDGE*    CLOUDY    55  54  94 E7        30.05S FOG
MOULTRIE*      CLOUDY    52  52 100 E3        30.07S
VIDALIA*       RAIN      46  46 100 NE6       30.11F
WAYCROSS*      RAIN      54  54  98 E6        30.08F
DOUGLAS*       CLOUDY    52  50  93 NE6       30.10R FOG
$$


USA.gov is the U.S. government's official web portal to all federal, state and local government web resources and services.